Content
SEND FEEDBACK

Daily
Averages
Monthly
Summary
United States of America

OUZINKIE - AIRPORT, ALASKA


Home > North America > United States > Alaska
Elevation: 70 feet     Latitude: 57 56N     Longitude: 152 30W

WEATHER
 
SELECT A DAY
Number of Records: 224,505;   Date Range: 1/1/95 - 10/24/14
 
SHARE

PRINT THIS DATA

[ ← Previous Day ]
WEATHER ALMANAC - JANUARY 31, 2013
[ Next Day → ]
[ °C ]   °F
Weather ElementAverageHighLow
Temperature35.2 °F37.4 °F (1:26 am)30 °F (7:53 am)
Dewpoint34.2 °F36 °F (1:53 am)30 °F (7:53 am)
Humidity96.2 %100 % (4:06 am)89 % (1:53 pm)
Barometer29.78 in29.83 in (1:53 pm)29.70 in (1:26 am)
Wind Speed5.3 mph15 mph (10:53 pm)
Weather ElementAverage
Visibility8.8 mi
Wind DirectionSE (138.9 °)

Weather ElementTotal
Precipitation0.03 in
Heating Degree Days31.3 (Base 65)
Averaged from 35 records on January 31, 2013
WEATHER CONDITIONS BREAKOUT
WIND DIRECTION BREAKOUT
WEATHER BY HOUR - JANUARY 31, 2013
[ °C ]   °F
Local TimeTemperatureDewpointHumidityBarometerVisibilityWind DirectionWind SpeedGust SpeedPrecipitationEventsConditions
1:26 AM37.4 °F35.6 °F93 %29.70 in10.0 miNW (320°)6.9 mphOvercast
1:51 AM37.4 °F35.6 °F93 %29.71 in10.0 miNNW (340°)6.9 mphOvercast
1:53 AM37.0 °F36.0 °F96 %29.71 in10.0 miNNW (340°)8.1 mphOvercast
2:18 AM37.4 °F35.6 °F93 %29.72 in10.0 miNNW (330°)5.8 mphOvercast
2:25 AM37.4 °F35.6 °F93 %29.72 in10.0 miNNW (340°)5.8 mphOvercast
3:53 AM36.0 °F34.0 °F93 %29.75 in10.0 miCalmOvercast
4:06 AM35.6 °F35.6 °F100 %29.74 in10.0 miCalmOvercast
4:53 AM35.1 °F34.0 °F96 %29.75 in10.0 miCalmOvercast
5:53 AM34.0 °F34.0 °F100 %29.77 in10.0 miCalmMostly Cloudy
6:53 AM32.0 °F32.0 °F100 %29.77 in10.0 miWest (280°)4.6 mphMostly Cloudy
7:53 AM30.0 °F30.0 °F100 %29.78 in10.0 miWest (280°)4.6 mphScattered Clouds
8:53 AM32.0 °F32.0 °F100 %29.80 in10.0 miWSW (240°)4.6 mphMostly Cloudy
9:09 AM32.0 °F32.0 °F100 %29.80 in10.0 miSW (220°)3.5 mphOvercast
9:53 AM32.0 °F32.0 °F100 %29.81 in10.0 miWest (260°)4.6 mphOvercast
10:53 AM34.0 °F33.1 °F96 %29.82 in10.0 miCalmOvercast
11:53 AM35.1 °F33.1 °F92 %29.82 in10.0 miCalmOvercast
12:53 PM35.1 °F33.1 °F92 %29.82 in10.0 miSouth (170°)3.5 mphOvercast
1:53 PM36.0 °F33.1 °F89 %29.83 in10.0 miNNE (20°)3.5 mphOvercast
2:53 PM36.0 °F34.0 °F93 %29.82 in10.0 miWest (280°)3.5 mphOvercast
3:53 PM36.0 °F35.1 °F97 %29.81 in8.0 miNW (310°)3.5 mphOvercast
4:00 PM35.6 °F35.6 °F100 %29.80 in10.0 miNW (310°)3.5 mphOvercast
4:53 PM36.0 °F34.0 °F93 %29.81 in10.0 miCalmOvercast
5:10 PM35.6 °F33.8 °F93 %29.80 in10.0 miCalmOvercast
5:18 PM35.6 °F33.8 °F93 %29.79 in10.0 miWNW (300°)3.5 mphOvercast
5:42 PM35.6 °F35.6 °F100 %29.79 in10.0 miCalmOvercast
5:53 PM36.0 °F35.1 °F97 %29.80 in4.0 miCalmOvercast
6:53 PM36.0 °F36.0 °F100 %29.80 in4.0 miEast (80°)9.2 mph0.00 inRainLight Rain
7:53 PM36.0 °F36.0 °F100 %29.80 in4.0 miENE (70°)9.2 mph0.01 inRainLight Rain
8:04 PM35.6 °F35.6 °F100 %29.80 in10.0 miENE (70°)12.7 mph0.00 inRainLight Rain
8:53 PM35.1 °F34.0 °F96 %29.80 in6.0 miNE (50°)12.7 mph0.00 inRainLight Rain
9:02 PM35.6 °F33.8 °F93 %29.79 in5.0 miNE (50°)11.5 mph0.00 inRainLight Rain
9:53 PM35.1 °F35.1 °F100 %29.79 in5.0 miNE (50°)13.8 mph0.01 inRainLight Rain
10:14 PM35.6 °F35.6 °F100 %29.79 in7.0 miNE (50°)12.7 mph0.00 inRainLight Rain
10:53 PM36.0 °F34.0 °F93 %29.79 in8.0 miNE (50°)15.0 mph0.01 inRainLight Rain
11:53 PM36.0 °F34.0 °F93 %29.78 in7.0 miNE (50°)13.8 mph0.00 inRainLight Rain
Hourly data recorded from PADQ, located miles away from Ouzinkie - Airport, Alaska







STORIES FROM OUR PARTNERS